Showing default

EKRAN 20, 22210

Orbit data source: Space-Track

EKRAN 20, 22210 is a payload satellite owned by GPKS (CIS) in GEO that was launched on Fri, 30 Oct 1992 UTC via a PROTON-K/DM-2 launch vehicle from the Tyuratam Missile And Space Complex (TTMTR). Payload-class satellites include a variety of spacecraft equipped with specific instruments for various scientific and technological missions. These include communications satellites like Starlink; space stations such as the ISS; scientific satellites like the Hubble; Earth observation satellites from companies like Planet Labs, Umbra, and HawkEye 360; GPS; miniature CubeSats for education and research; and military/defense satellites.

Not visible in the next 10 days
Identifier
22210, 1992-074A
Orbit
GEO
Country
Flag of CISCIS
Related business
None
Manufacturer
NPO PM
Mission
Non-operational Civil Communications
Bus & Motor
EKRAN, Unknown motor
Mass
2,100 kg wet, ~1,900 kg dry
Launch date (UTC)
1992-10-30 (33 years ago)
Launch vehicle
PROTON-K/DM-2
Launch site
Tyuratam Missile And Space Complex (TTMTR)
Object type
Payload
Rocket body
Debris
Shape & HBR
Cyl + 2 Pan + 1 Plate, 4.5 m
Radar Cross Section
17.622 m², Large (>1 m²)

Expand to show TLE details & history
Last TLE update: 1 day ago

TLE from 1 day ago
0 EKRAN 20
1 22210U 92074A   25348.56996185  .00000071  00000-0  00000-0 0  9998
2 22210  13.7970 345.6471 0006108 223.7121 133.9379  1.00242026 45516
Epoch: 2025-12-14T13:40Z
TLE epoch observation values (Epoch: 2025-12-14T13:40:44.703Z)
Latitude
-0.54542°
Longitude
54.73629°
Altitude
35,812.35 km
Speed
3.073 km/s
True Right ascension
22h 53m 36s
True Declination
0° 32' 42"
Sunlit
Object was in daylight at epoch
Visualization orbit readout
Latitude
Unknown
Longitude
Unknown
Altitude
Unknown
Speed
Unknown
Apparent Right ascension
Unknown
Apparent Declination
Unknown
Sunlit
N/A
Visualization observer readout
Local Sidereal Time
13:18:20
Azimuth
Unknown
Elevation
Unknown
Doppler factor
Unknown
Orbital elements
Apogee altitude
35,821.681 km
Perigee altitude
35,770.161 km
Semi-major axis
42,174.058 km
Eccentricity
0.00061
Inclination
13.797°
RAAN
345.6471°
Arg. of periapsis
223.7121°
True anomaly
133.98827°
Mean anomaly
133.9379°
Eccentric anomaly
133.96309°
Mean motion
0.2506 °/min
Orbital period
1,436.57 mins
BSTAR
0
Loading maneuver chart data...
Computing Atmospheric mass density...
Loading historical data...
Loading historical data...
Loading historical data...
Loading historical data...
Loading historical data...
Loading historical data...
Loading historical data...

Documentation

Showing up to 5 results
|